Location: Bucquoy
(50.1391°N, 2.7097°E)
Time: 07:58:27
(UTC+00:00)

ADEOS II - Pass Details

Date: 06 May 2021
Orbit: 799 x 801 km, 98.6° (Epoch: 21 June)

Event Time Altitude Azimuth Distance (km) Brightness Sun altitude
Rises 03:05:13 0° 9° (N) 3,322 6.2 -10.2°
Reaches altitude 10° 03:07:41 10° 2° (N) 2,387 5.2 -9.9°
Maximum altitude 03:12:31 38° 296° (WNW) 1,205 2.8 -9.3°
Enters shadow 03:17:09 11° 230° (SW) 2,307 3.8 -8.7°
